Wind_Gust
14 13 12 12 12 12 12 12 12 11 11 11 12 12 12 12 12 11 11 11 11 11 12 12 13 14 15 16 16 17 13 17 15 8 7 18 12 8 13 4 12 15 4 5 6 7 7 7 6 10 7 5 7 7 6 5 6 6 6 9 8 7 11 11 12 14 7 12 15 13 9 12 7 8 9 11 14 16 13 12 8 13 12 10 16 24 25 22
14 13 13 13 12 12 11 11 11 11 10 10 10 11 11 11 11 11 11 11 11 12 12 12 13 14 15 15 15 15 15 13 12 10 25 12 8 12 10 9 12 15 11 7 10 9 10 5 5 6 8 8 6 6 6 8 6 7 8 7 11 12 12 10 9 7 9 15 13 15 9 10 9 10 9 12 16 19 18 11 9 16 16 18 23 26 25 21
14 14 13 13 12 11 11 10 10 10 10 10 10 10 10 10 11 11 11 11 11 12 12 13 13 14 14 14 15 11 14 8 8 7 7 7 15 10 12 12 12 11 6 9 6 10 7 7 6 6 7 8 11 7 6 7 7 6 8 8 12 12 10 10 9 12 11 13 18 15 10 7 7 7 8 13 13 12 22 24 13 15 20 22 25 25 24 22
14 13 13 12 11 11 11 11 12 12 12 12 11 11 11 11 11 12 12 12 11 11 12 13 13 14 14 14 13 14 7 8 7 5 6 5 8 14 13 12 9 9 12 11 9 8 8 10 9 8 7 9 7 5 7 7 9 7 8 12 8 7 9 9 10 13 13 10 11 9 11 7 5 7 9 16 18 11 11 13 18 24 26 26 26 26 26 22
14 14 13 13 13 13 12 11 11 11 11 11 11 11 11 11 11 11 12 12 11 12 12 13 13 14 15 14 12 8 6 7 6 6 8 8 7 14 14 11 10 8 8 12 12 10 10 7 6 9 8 9 5 5 5 6 5 11 12 8 9 8 11 16 13 8 10 6 8 7 13 8 8 6 12 20 20 20 16 14 9 14 29 32 31 28 27 25
14 14 13 13 13 13 12 12 12 12 12 12 11 11 11 11 11 10 11 11 11 11 12 13 13 14 15 15 7 7 7 11 6 7 9 7 14 15 14 12 12 13 13 10 8 6 6 7 7 6 6 6 6 8 6 6 6 12 8 8 10 10 14 8 8 7 7 10 11 12 7 8 6 6 12 17 8 8 7 9 11 17 25 31 30 32 28 27
14 14 13 13 13 13 13 13 13 12 12 12 12 11 12 11 11 11 11 11 11 11 12 12 13 15 15 9 7 6 5 12 7 8 9 12 13 17 17 14 12 10 9 11 7 5 6 7 8 7 8 6 5 7 7 5 5 10 13 6 10 11 14 12 14 6 9 6 16 7 6 12 8 9 9 13 7 7 10 8 18 20 21 23 29 26 30 27
14 14 14 14 14 14 14 13 13 13 12 12 12 12 11 11 11 11 10 10 10 11 12 12 13 14 13 8 5 6 5 5 7 6 7 15 16 18 17 11 12 9 9 10 10 8 6 8 9 8 7 7 6 7 6 6 5 9 9 7 10 6 12 14 12 12 8 13 15 6 10 9 8 8 12 14 8 6 9 13 22 23 22 21 20 23 24 21
15 15 15 14 14 14 13 13 13 12 12 12 11 11 11 11 10 10 10 10 10 11 11 12 13 12 9 7 5 5 7 8 4 5 9 13 13 13 14 14 5 11 10 9 5 8 8 6 6 8 5 5 7 6 6 7 9 12 12 5 8 12 12 11 12 11 12 12 7 9 9 6 5 7 8 5 5 8 13 16 21 24 23 21 21 19 20 22
16 15 15 14 14 14 14 13 13 13 12 11 11 10 10 10 9 9 10 10 9 9 10 11 12 11 7 5 4 9 5 5 4 7 8 12 12 10 9 13 12 13 12 6 9 8 7 9 5 9 9 7 7 7 6 7 6 8 9 10 14 16 11 8 10 7 6 8 6 9 8 8 8 5 8 8 7 12 15 16 18 24 25 22 20 20 20 22
15 15 15 14 14 14 14 13 13 12 12 11 11 11 10 9 9 9 8 8 8 8 8 9 10 11 7 5 5 7 3 5 6 8 10 8 12 12 11 10 12 13 10 7 7 9 6 9 7 9 5 5 7 7 8 7 7 8 9 10 13 11 9 10 9 11 6 6 8 7 7 5 8 5 7 6 7 10 18 16 17 17 23 24 21 22 20 20
16 15 15 15 14 14 13 13 13 13 12 12 11 11 10 8 8 7 7 7 8 8 7 6 9 8 6 6 6 7 3 3 9 8 8 9 8 4 6 9 11 11 13 10 8 8 9 9 7 6 6 7 7 5 7 8 6 6 5 12 13 13 8 9 7 7 6 7 6 6 7 6 6 6 8 6 9 10 15 17 16 16 18 21 23 20 17 18
16 16 15 15 14 14 14 14 13 12 12 12 12 11 10 9 8 7 6 6 5 5 5 7 7 6 6 3 11 10 4 7 10 7 7 7 10 9 8 7 7 10 11 11 8 10 10 10 7 5 6 6 5 7 6 6 7 5 7 7 12 13 7 13 7 7 7 6 5 6 9 9 12 9 8 6 13 14 15 16 16 15 15 16 16 16 16 14
16 15 15 15 15 15 14 14 14 13 13 12 12 11 9 9 8 7 5 5 5 6 5 5 5 7 4 9 8 5 8 8 9 8 7 3 7 6 6 6 6 7 7 8 5 6 10 5 6 6 6 9 7 7 8 11 9 8 7 9 7 8 9 13 10 14 10 7 6 6 8 10 10 9 7 6 11 19 17 16 16 15 15 16 15 16 17 16
16 15 15 14 15 15 14 14 14 13 13 13 12 11 9 9 8 6 4 4 4 4 4 3 5 6 6 14 7 8 12 9 9 8 12 11 9 5 6 6 6 6 6 6 5 5 7 9 7 5 6 5 5 8 7 8 10 8 7 7 7 8 8 12 7 12 12 7 8 9 6 10 11 12 7 6 8 12 17 17 17 17 17 17 17 17 17 15
16 15 15 14 14 14 13 14 14 13 12 12 12 12 12 10 8 6 4 5 4 6 8 6 5 5 6 9 8 9 8 4 3 7 11 11 11 5 6 9 6 7 7 5 5 7 7 8 7 5 6 5 7 8 8 8 7 10 8 4 6 6 7 8 10 7 6 8 8 7 9 10 6 11 7 6 9 10 15 16 16 16 16 18 18 16 14 13
15 15 15 14 14 13 13 13 12 12 12 10 12 11 8 6 5 4 5 4 4 5 5 5 6 6 6 7 4 4 4 6 4 6 5 4 7 10 10 6 5 8 9 7 7 8 6 5 6 5 12 8 5 6 5 10 6 6 8 7 5 7 9 8 14 10 12 11 7 11 6 11 7 11 8 6 8 12 14 16 16 17 17 18 16 16 17 16
16 15 15 14 13 12 12 12 11 11 10 9 9 4 8 8 9 10 7 6 6 6 6 6 6 5 11 6 4 6 4 7 6 6 5 5 8 8 8 6 4 6 8 9 5 6 7 5 8 6 5 7 6 9 7 6 7 6 7 6 7 6 7 9 7 11 13 9 7 7 6 15 8 10 8 9 6 12 12 15 17 18 17 17 16 17 16 16
16 15 14 13 13 12 11 10 9 9 7 8 6 10 10 9 8 5 6 6 5 5 6 5 5 7 12 4 6 8 6 7 4 5 7 11 5 7 8 7 9 3 5 7 5 5 8 6 8 8 5 8 6 6 8 5 8 5 9 6 6 4 7 6 8 7 10 9 6 6 8 11 9 10 7 9 9 12 10 8 8 11 13 14 15 16 16 17
17 15 14 13 11 10 9 8 7 6 5 3 6 8 6 8 10 6 5 4 8 8 7 7 6 5 11 8 6 9 5 4 6 5 7 5 17 8 8 5 6 12 6 5 7 6 7 7 5 6 8 8 6 8 5 6 9 9 8 8 6 6 8 9 7 7 7 6 6 5 7 8 12 12 9 7 7 11 11 13 13 14 16 17 18 18 18 16
18 15 14 12 10 8 7 6 4 3 3 5 7 4 8 6 7 12 15 13 9 8 10 10 10 9 11 5 7 8 8 5 6 4 4 6 8 12 6 6 8 4 5 4 5 6 6 5 7 11 10 7 4 9 10 11 5 7 8 7 7 7 6 7 6 8 8 6 7 6 7 10 12 11 12 9 6 15 15 13 14 16 17 17 19 20 21 17
17 15 13 11 9 8 6 5 2 3 7 7 5 9 7 6 5 5 5 16 8 9 7 9 5 10 7 9 6 7 6 8 6 4 5 6 5 8 6 7 5 7 5 4 6 9 9 6 9 10 7 9 9 9 7 8 10 6 8 7 6 8 11 12 6 6 7 5 7 7 9 9 9 8 9 8 10 9 12 18 19 19 18 19 20 19 16 13
18 15 14 10 8 6 4 4 5 6 7 6 6 7 6 4 4 5 4 6 14 6 5 4 6 10 11 7 6 8 4 7 6 6 13 7 5 5 9 7 6 6 3 4 7 4 6 8 9 7 11 10 7 8 10 9 8 8 7 9 9 7 6 7 5 7 9 9 7 7 10 11 11 9 10 11 9 10 7 7 9 11 19 21 24 23 20 19
18 16 12 10 7 4 3 7 8 6 7 6 5 6 4 4 6 9 7 8 11 12 7 9 6 6 8 3 9 11 7 5 6 5 4 10 9 6 10 9 8 5 8 8 9 10 11 8 8 11 7 7 7 6 9 8 8 5 6 6 6 7 6 10 7 9 6 7 5 8 11 12 8 7 8 8 10 10 8 10 10 11 13 11 8 10 17 22
19 16 12 9 7 3 4 8 5 6 7 6 8 9 6 6 7 10 5 10 6 11 4 3 5 9 7 4 5 8 5 5 11 4 7 11 11 8 3 6 6 8 5 6 9 6 11 8 8 7 5 5 9 7 10 10 6 6 11 13 10 7 8 7 6 6 11 7 12 9 15 8 9 10 10 10 9 7 7 8 11 11 9 12 17 19 16 16
19 16 12 8 5 4 8 4 4 9 6 4 5 4 6 7 7 9 14 8 6 9 6 4 6 6 7 4 6 4 5 5 3 8 6 7 9 7 9 6 5 4 7 9 7 9 6 4 6 7 9 6 6 6 7 10 8 7 9 12 9 9 7 8 6 6 7 10 9 6 11 14 10 6 7 8 10 12 9 11 8 7 8 11 15 15 16 20
18 15 12 8 4 8 5 3 4 7 2 3 5 7 7 7 6 8 11 13 9 5 4 6 6 10 10 4 9 6 7 5 6 5 4 4 5 5 6 7 5 7 6 8 10 7 5 5 9 9 8 7 6 5 8 13 13 11 5 11 12 11 9 8 7 6 5 5 6 8 7 13 15 11 6 8 9 9 11 12 12 10 7 9 12 16 17 20
18 15 12 8 4 7 4 5 4 4 5 4 7 8 8 5 6 9 13 9 14 6 6 6 6 5 4 5 6 5 5 4 7 4 4 6 4 6 5 9 10 8 7 5 9 6 5 5 6 4 5 5 6 7 10 12 13 6 6 7 11 8 6 9 7 7 5 6 12 7 6 12 11 13 7 9 8 11 10 12 15 11 8 10 13 16 16 19
17 14 11 8 5 5 4 5 3 5 4 7 8 9 6 7 10 12 11 11 11 10 11 7 7 5 8 4 6 6 5 6 6 4 6 6 11 5 7 8 8 11 6 5 12 9 9 9 5 7 7 12 7 6 14 14 11 5 11 13 13 12 13 8 8 8 5 7 12 8 6 16 15 9 10 7 7 8 10 16 14 14 15 14 13 13 17 19
17 14 10 5 6 5 5 4 9 5 6 8 8 5 5 6 9 7 7 6 8 6 5 9 6 6 5 6 5 9 5 6 4 9 9 8 7 10 8 7 9 7 5 8 6 11 8 7 6 7 10 7 10 8 6 5 7 13 8 13 10 13 8 8 11 7 7 6 14 8 8 8 19 6 8 7 6 9 15 13 11 14 16 18 18 17 14 15
17 13 9 3 7 4 6 4 6 5 6 8 5 7 6 15 10 9 5 10 7 8 7 7 6 8 8 5 7 9 4 7 9 7 5 7 4 10 5 5 11 10 7 9 9 11 9 5 7 10 5 8 8 10 7 7 8 9 7 8 9 9 10 8 8 9 8 11 9 8 6 7 14 8 8 8 9 11 12 13 15 17 18 20 20 22 19 16
16 12 8 11 8 3 4 3 3 5 7 6 9 9 8 7 6 4 7 6 10 9 7 8 5 6 7 4 8 13 8 7 7 10 6 7 4 6 6 9 5 7 8 6 7 10 9 8 6 10 7 7 8 10 8 5 5 10 10 10 9 8 9 7 8 8 13 14 8 9 5 7 19 11 11 11 9 10 8 10 13 15 18 18 20 21 19 16
18 12 7 12 6 6 10 5 5 5 6 8 10 8 10 10 6 8 5 8 8 4 5 4 6 7 4 7 10 9 6 9 9 6 4 6 5 8 6 6 7 8 14 6 6 11 14 9 6 6 5 5 7 13 10 9 11 11 13 9 12 12 7 8 8 7 12 11 7 7 6 12 9 11 7 9 10 10 11 10 11 14 16 18 18 17 17 16
18 8 9 9 12 9 8 7 6 10 6 8 7 6 14 6 6 7 5 6 4 5 4 7 7 5 9 9 6 8 7 4 9 11 8 5 9 7 9 7 6 7 5 6 11 6 8 18 7 4 6 6 8 11 13 7 12 11 8 16 13 14 17 10 14 14 13 8 6 5 7 10 6 9 9 8 10 10 9 11 11 12 12 12 12 14 17 16
14 7 6 6 6 9 12 9 8 5 8 8 16 12 8 11 6 6 5 7 7 6 4 5 5 7 7 8 7 5 5 4 6 6 12 8 7 5 7 9 9 8 6 8 7 5 7 14 13 7 5 5 4 5 7 11 10 5 7 10 12 14 13 19 7 10 8 8 6 10 11 5 7 9 10 8 9 9 12 11 12 11 12 11 13 19 19 20
4 5 6 4 5 4 6 6 7 6 9 10 12 6 7 9 5 7 5 5 6 3 8 7 11 8 6 5 5 7 8 6 10 7 8 8 4 7 5 6 8 4 4 6 9 10 6 11 6 11 6 5 5 6 6 6 16 11 10 14 10 10 16 14 5 8 4 7 13 6 11 10 11 8 6 8 9 8 10 10 11 13 14 13 18 17 18 19
10 7 4 7 7 10 7 6 6 8 15 13 12 5 9 6 8 8 6 4 5 5 6 5 8 5 3 4 5 10 8 7 6 8 5 4 5 9 8 5 3 4 5 6 7 8 7 12 8 4 7 6 5 5 7 9 8 18 12 12 11 7 10 11 13 6 5 13 15 7 8 8 12 12 12 8 6 7 9 10 11 10 14 16 16 17 18 19
10 7 5 5 7 10 5 4 4 13 11 8 4 5 6 6 5 5 3 4 4 5 7 4 5 5 6 4 4 5 7 7 10 6 5 5 7 5 4 8 7 6 9 7 6 6 7 12 9 5 6 9 9 6 7 8 8 8 7 9 12 10 9 7 12 7 9 11 13 7 6 9 14 14 16 15 12 10 7 8 10 13 14 13 13 15 16 17
6 6 4 3 6 9 5 5 11 8 7 8 5 4 7 7 5 5 4 5 4 5 3 6 4 4 8 6 5 5 6 5 4 3 4 5 9 4 7 4 5 5 7 6 5 5 5 8 14 6 5 8 8 7 11 8 8 8 7 11 7 9 7 12 14 9 12 8 5 7 9 15 18 11 16 18 14 10 7 6 9 9 10 10 11 13 16 18
10 5 5 2 11 9 6 5 8 11 7 3 7 8 5 5 4 6 5 4 4 5 4 5 4 4 5 4 7 3 5 5 7 6 4 5 6 6 7 6 6 15 6 6 7 5 3 5 8 7 8 6 10 8 7 7 7 8 9 7 7 7 7 9 9 10 12 13 11 9 10 14 8 10 13 16 13 10 8 6 7 9 9 9 10 11 12 15
5 5 8 7 15 9 6 17 12 6 7 4 5 4 5 5 6 5 6 4 4 4 6 7 10 6 8 6 6 5 6 5 5 7 8 6 5 8 4 6 4 9 7 6 12 7 6 4 8 10 12 9 8 7 6 9 6 5 7 9 10 11 12 12 14 9 9 15 14 12 18 10 9 7 8 9 9 8 7 8 8 9 10 10 10 11 11 13
8 8 6 7 13 6 9 4 6 5 8 6 5 7 4 4 5 6 7 6 5 5 6 9 5 5 7 5 5 7 8 6 5 6 5 8 5 6 4 5 6 6 7 7 5 4 6 7 6 11 14 13 6 5 7 8 7 6 7 7 8 6 8 12 16 9 7 8 9 8 6 6 8 8 8 9 7 8 6 7 7 7 7 8 10 11 11 12
10 7 9 10 11 4 10 7 5 4 4 5 7 5 6 4 4 4 4 8 6 4 5 6 4 6 5 5 5 6 7 7 8 5 5 6 6 4 5 10 7 5 5 7 5 5 6 8 6 10 12 10 7 6 5 6 7 6 7 6 6 10 7 11 11 8 10 10 9 6 12 12 8 6 6 8 8 7 6 7 10 10 8 8 10 11 12 12
6 8 12 8 12 7 9 12 5 2 7 7 6 5 3 4 5 7 7 6 6 7 4 4 5 5 5 4 7 6 5 10 5 5 6 4 8 4 5 9 6 6 6 5 5 6 8 9 7 7 11 15 12 8 8 6 7 6 7 5 6 6 8 6 8 7 10 12 8 13 23 9 10 6 7 7 7 9 10 9 8 13 9 9 9 10 10 11
9 7 7 17 19 15 9 7 6 5 4 5 6 8 11 5 3 4 4 5 6 5 4 5 4 5 5 5 7 6 9 5 8 5 5 4 5 5 5 9 9 8 5 5 6 6 7 8 9 12 13 14 13 11 15 8 7 8 5 6 5 6 8 7 12 9 15 8 8 13 10 11 8 6 8 6 6 9 8 8 7 6 8 9 9 9 9 10
10 6 13 13 22 15 14 5 8 7 5 5 4 5 4 7 4 7 4 6 3 5 7 4 4 6 7 4 6 5 5 7 6 6 7 6 6 7 4 8 7 7 6 10 9 5 6 5 7 11 17 19 17 15 6 6 6 12 6 5 7 7 8 8 9 8 15 7 11 10 6 4 11 15 10 9 10 11 12 10 11 11 8 7 7 8 9 9
7 11 9 12 15 15 7 10 10 8 3 4 6 6 5 6 9 10 4 6 8 4 6 8 6 6 5 6 5 5 4 4 7 6 5 5 6 7 7 5 6 10 12 7 9 9 7 6 6 6 10 13 7 9 5 5 12 10 11 11 8 6 6 8 11 16 9 10 20 11 10 12 14 15 13 11 11 10 9 10 11 9 8 8 7 6 6 9
10 4 4 5 4 8 10 8 13 8 7 4 3 4 5 6 8 6 11 7 5 8 5 4 11 9 4 5 7 8 5 5 6 5 4 6 6 7 6 7 6 11 10 7 8 6 6 7 5 6 8 8 8 10 7 7 11 12 10 9 11 12 9 13 9 11 12 16 23 12 15 12 10 12 14 14 17 18 17 15 10 7 7 8 8 8 8 8
11 5 5 6 3 5 4 9 6 5 9 9 5 7 6 7 6 4 5 11 9 8 8 4 5 8 7 5 4 5 5 7 5 5 7 4 5 7 5 6 5 7 8 8 9 6 8 9 9 8 10 7 9 10 8 10 8 9 13 13 14 11 15 15 15 10 18 18 13 11 12 17 14 13 13 13 13 15 11 6 6 8 9 10 9 8 8 7
13 10 8 11 8 5 7 7 5 7 8 11 3 7 5 6 6 10 6 7 6 5 7 7 4 6 7 7 5 6 6 6 5 4 5 5 4 5 6 7 5 5 8 6 5 5 7 13 7 6 9 13 9 9 8 12 11 20 16 12 8 10 13 14 12 8 6 15 8 8 11 19 12 9 10 8 7 7 7 11 11 9 8 10 9 8 7 6
7 5 4 7 7 10 8 8 8 7 4 11 9 7 5 7 6 6 5 7 6 6 8 4 7 4 6 8 11 7 6 6 10 9 10 9 5 8 6 9 7 8 9 6 5 6 6 9 7 7 13 13 10 17 18 12 14 17 16 10 14 13 12 11 18 15 13 14 10 10 13 19 18 13 7 6 8 13 15 12 9 9 9 9 10 8 7 7
6 5 4 4 3 8 7 6 5 4 6 5 6 6 6 8 7 5 5 3 7 9 5 7 6 5 5 8 9 9 12 10 12 13 11 8 5 5 6 6 9 6 6 5 5 8 7 7 7 4 12 14 11 11 10 11 15 25 13 16 25 19 13 9 11 7 18 15 15 15 22 15 9 10 16 15 14 13 10 8 9 8 9 10 10 7 6 5
Wind_Speed
10 9 9 8 9 9 8 8 8 8 8 8 9 9 9 9 9 8 7 7 7 8 8 8 9 10 11 12 12 13 10 9 8 3 3 9 6 6 10 1 10 12 2 1 2 4 3 2 2 4 2 1 2 1 2 1 1 2 1 2 2 1 4 4 5 5 2 5 8 8 4 7 3 3 3 5 7 9 7 6 3 7 5 4 8 15 15 14
10 9 9 10 9 9 8 8 8 8 8 8 8 8 8 8 8 8 8 8 8 8 9 9 9 10 11 11 12 10 9 7 7 5 14 5 5 9 7 6 10 12 8 2 5 5 6 2 1 1 3 3 2 1 1 2 2 1 2 1 4 4 3 3 2 2 3 8 8 9 5 4 4 5 3 4 9 11 10 5 4 8 8 10 14 17 17 14
10 10 10 10 9 8 8 7 7 8 8 8 8 8 8 7 7 8 8 8 8 8 9 9 10 10 11 11 11 8 8 3 3 2 3 4 11 8 9 9 10 9 3 5 2 5 3 3 2 2 2 3 4 2 1 2 2 1 2 2 4 4 4 4 3 6 6 8 11 9 5 2 2 2 3 6 7 7 13 11 7 8 12 13 15 17 16 14
10 10 9 9 9 9 9 9 9 9 9 9 9 9 9 9 8 9 9 9 8 8 9 9 10 10 11 11 10 8 3 4 2 2 2 2 6 10 11 10 8 6 7 6 4 4 4 5 4 2 2 3 1 1 2 2 2 2 2 4 2 2 3 3 5 8 8 5 6 4 6 2 1 3 4 9 10 5 5 6 9 15 16 17 17 17 17 14
10 10 10 10 10 10 9 9 9 8 8 8 8 8 8 8 8 8 8 9 8 9 9 10 10 11 11 11 9 3 2 1 2 3 3 5 6 12 11 8 7 4 4 7 7 5 4 3 2 4 2 2 1 0 0 1 1 4 5 2 4 2 5 10 7 4 5 1 3 3 8 4 3 2 6 12 10 8 6 8 3 7 19 21 20 18 16 16
11 10 10 10 10 9 9 9 9 9 9 9 9 8 8 8 8 8 8 8 8 8 9 9 10 11 12 11 2 2 2 3 1 3 8 3 11 12 11 9 7 8 8 5 3 2 3 3 2 2 1 2 2 2 1 1 2 4 2 4 5 5 7 4 3 3 4 4 6 7 2 3 1 1 7 11 2 3 2 3 4 9 11 17 19 19 18 18
11 11 10 10 10 10 10 10 10 9 9 8 8 9 8 8 8 8 8 8 8 8 8 9 10 11 11 5 2 3 1 4 4 3 6 9 10 12 13 11 9 6 5 6 3 1 2 3 2 3 3 2 0 2 1 2 2 4 4 1 6 6 8 7 8 3 4 2 9 2 2 6 2 5 3 7 3 2 5 3 10 12 13 15 17 17 18 17
11 11 11 10 10 10 10 10 10 9 9 9 8 8 8 8 7 8 7 7 7 7 8 9 9 10 10 4 1 1 1 2 3 3 5 11 11 12 12 6 7 5 5 6 5 4 3 4 4 3 2 2 2 3 2 2 1 3 3 3 5 2 7 8 6 6 3 8 8 1 5 4 4 2 6 9 4 2 3 7 14 15 14 13 12 16 16 14
12 12 11 11 11 11 10 10 10 10 9 8 8 8 7 7 7 7 7 7 7 7 7 8 9 9 6 3 0 0 3 4 1 2 6 8 7 8 9 7 2 7 5 4 1 4 4 1 2 3 1 1 3 2 2 3 3 6 6 1 4 7 7 5 7 6 6 5 3 4 2 1 1 3 3 1 1 4 7 10 14 16 15 14 15 13 14 14
12 12 11 11 11 11 11 10 10 9 9 8 8 7 7 7 6 6 6 6 6 6 6 7 8 7 2 1 1 1 1 3 1 3 5 6 6 5 4 8 7 8 7 2 5 4 2 3 1 4 4 3 3 2 2 3 1 4 4 5 8 10 6 4 3 2 2 3 1 3 4 3 3 1 2 3 3 6 8 10 11 15 16 14 12 12 13 14
12 12 11 11 11 11 11 10 10 9 9 8 8 8 7 6 6 6 6 5 5 5 5 6 7 7 2 1 2 2 1 1 1 3 6 4 7 6 7 5 6 6 5 3 3 4 2 3 3 3 1 1 3 1 3 1 2 3 4 5 8 5 3 5 5 5 1 1 2 3 3 0 4 2 1 1 3 5 11 9 10 10 14 14 14 13 13 12
12 12 12 12 11 11 11 11 10 10 9 9 8 8 7 6 6 5 4 4 5 4 4 4 6 2 1 1 2 1 1 0 4 3 4 5 4 1 3 4 6 5 6 4 4 4 4 4 3 2 1 2 2 0 2 2 2 2 1 6 7 5 3 5 2 3 2 2 2 2 3 2 2 1 4 1 4 4 9 10 10 10 10 13 14 11 9 9
12 12 12 12 11 11 11 11 10 10 9 9 9 8 7 7 6 5 3 3 2 3 3 4 3 1 2 1 4 3 1 2 5 4 3 2 5 4 3 3 2 3 4 5 3 5 5 4 2 0 1 2 1 2 2 0 3 0 2 2 6 4 2 8 1 2 2 2 1 2 3 3 5 1 2 2 6 8 9 9 8 7 7 8 9 8 8 7
12 12 12 11 12 11 11 11 11 10 10 9 9 8 7 7 6 4 3 2 2 3 2 3 0 2 0 3 2 1 5 3 6 5 3 0 4 2 3 3 3 3 3 4 1 0 5 0 1 2 1 4 1 3 3 2 2 3 2 1 2 2 3 7 4 8 5 2 1 2 3 1 1 3 3 1 5 11 9 9 9 8 7 8 8 8 9 9
12 12 12 11 11 12 11 11 11 10 10 9 9 9 7 7 6 3 2 2 2 2 1 2 1 1 1 4 2 2 8 5 5 4 6 6 5 2 3 2 3 2 2 2 1 1 2 5 3 1 1 1 1 4 2 2 3 2 1 1 0 2 2 5 3 7 5 2 4 2 2 2 5 5 2 1 3 5 9 9 10 9 9 9 9 9 8 8
12 12 12 11 11 11 11 11 11 10 9 9 9 9 9 7 6 4 2 3 2 3 3 2 0 1 1 3 3 6 4 2 1 2 4 4 6 2 2 5 2 3 3 2 0 2 2 3 2 1 2 1 2 2 1 1 1 2 2 1 1 1 2 2 5 3 2 3 3 2 3 3 1 5 2 2 4 5 7 9 9 10 10 10 9 8 7 6
12 12 11 11 11 11 10 10 9 9 9 8 9 8 5 4 3 3 3 2 1 1 1 0 1 1 2 1 1 1 1 3 2 2 2 1 3 5 6 3 2 4 5 3 3 3 2 1 1 1 4 2 0 0 1 2 1 2 2 2 1 2 3 2 6 5 6 6 2 5 1 5 2 4 1 1 3 7 7 9 9 9 9 10 8 8 8 8
12 11 11 11 11 10 9 9 8 8 7 7 6 1 4 7 7 8 4 3 1 1 1 1 1 2 4 1 1 2 0 3 2 3 2 1 3 4 4 3 1 3 4 4 1 2 3 1 2 1 0 1 0 2 0 1 1 2 3 2 2 1 2 4 2 5 7 4 2 1 2 8 2 3 3 5 1 6 6 7 9 10 9 9 8 9 9 8
12 11 11 11 10 9 8 8 7 6 4 5 4 8 7 7 3 1 1 1 1 0 1 1 0 2 4 1 3 4 2 3 2 3 3 6 1 3 4 3 5 0 1 1 1 2 1 2 1 0 1 2 1 1 0 1 2 1 2 2 2 0 2 1 1 2 5 4 1 1 2 5 4 4 2 4 4 6 5 3 3 5 6 7 8 8 8 9
12 11 11 10 9 8 7 6 5 4 2 2 1 2 2 1 1 1 1 0 3 4 3 3 2 2 7 4 3 5 2 1 3 2 3 2 8 5 4 1 2 5 2 2 1 3 2 2 1 1 1 3 2 3 1 2 4 4 2 3 2 1 2 3 2 2 2 2 1 0 2 3 6 6 3 2 2 5 6 7 6 7 8 9 10 10 10 9
13 11 10 9 8 6 5 4 3 2 1 2 3 1 3 1 3 3 6 6 4 4 6 5 5 5 5 2 3 4 3 2 3 2 2 2 4 8 2 2 3 1 2 1 2 2 1 1 2 5 5 3 0 4 5 6 1 2 2 3 2 2 2 2 2 3 2 2 1 1 2 4 5 4 4 1 1 8 9 7 8 9 10 9 11 12 13 10
13 12 10 8 7 5 4 3 1 1 3 2 2 3 3 2 2 0 1 5 4 4 3 5 2 5 3 4 3 3 3 4 1 0 1 3 2 3 1 2 2 3 2 1 1 1 2 2 3 4 2 5 4 4 3 3 5 2 3 2 2 2 4 5 1 1 2 1 1 2 3 3 3 3 3 3 5 3 6 10 12 11 11 10 11 11 9 6
13 12 10 7 5 4 2 2 3 5 2 2 2 3 2 2 0 1 1 2 6 1 2 0 3 5 6 2 2 4 1 4 2 2 6 4 2 2 4 2 2 2 0 1 3 1 2 1 4 3 6 6 3 3 6 5 3 3 2 3 3 2 2 1 2 2 4 3 3 2 4 4 3 3 4 4 3 4 0 3 4 7 11 13 15 14 11 11
14 12 8 6 4 1 1 5 6 3 2 2 1 2 1 1 1 5 4 3 4 6 3 4 3 2 4 1 4 6 3 1 2 2 0 4 4 2 4 4 3 1 3 4 5 4 3 4 4 6 3 4 4 3 4 3 3 0 2 2 0 2 2 2 2 4 1 3 1 3 4 4 2 2 2 2 3 5 3 3 5 5 7 6 4 5 10 13
14 11 9 6 4 0 3 6 2 2 2 2 3 4 2 3 3 6 2 2 0 3 1 0 2 4 3 2 2 3 2 1 6 0 2 5 6 4 1 1 2 3 1 2 4 0 5 1 4 4 2 2 5 3 5 4 2 2 6 8 6 3 4 2 2 2 2 1 5 4 5 1 2 3 2 0 2 2 2 2 5 3 3 5 10 12 9 10
14 12 9 6 3 1 5 1 1 3 2 1 2 1 2 3 3 4 3 3 1 3 3 1 2 2 2 1 2 1 1 1 1 2 1 2 3 3 3 2 1 1 3 4 2 1 1 1 3 4 5 3 3 2 2 6 3 2 3 8 5 5 3 4 2 0 1 3 3 2 4 2 0 1 2 2 4 3 3 5 1 1 2 5 8 8 9 11
14 12 9 5 1 5 2 1 0 3 0 1 2 3 3 2 2 5 2 3 2 0 1 1 1 1 2 1 4 3 1 2 1 2 1 1 2 2 2 1 0 2 1 3 2 2 2 2 4 4 4 3 2 1 4 8 5 4 2 6 6 6 5 4 3 1 0 0 1 2 1 4 4 3 2 2 4 4 5 4 5 1 1 3 6 9 10 11
13 11 8 5 1 5 1 1 1 1 2 2 3 4 4 0 2 2 1 2 0 2 2 2 1 1 1 2 1 1 1 1 1 0 1 3 1 3 1 5 5 4 3 1 4 1 3 2 3 1 1 1 2 2 6 7 4 1 1 2 5 3 2 4 2 2 1 2 4 2 2 3 3 2 2 2 3 3 2 6 8 5 3 5 7 8 9 11
13 11 8 5 1 3 0 1 1 2 1 3 4 4 1 3 4 3 2 1 1 1 2 2 2 1 4 1 3 2 2 2 2 1 3 3 6 2 2 3 4 6 2 2 5 1 3 4 2 3 3 5 1 1 7 8 5 1 6 7 6 6 6 2 2 2 1 2 4 3 1 5 6 1 3 2 2 2 4 8 7 8 8 7 6 6 9 11
13 10 7 2 3 1 1 0 4 2 2 4 4 1 2 1 1 0 1 1 1 1 1 3 1 2 2 2 2 5 3 2 1 4 4 2 4 5 4 2 4 3 2 3 2 3 3 3 1 2 3 1 4 3 1 0 3 7 4 6 4 5 3 2 4 1 1 2 6 2 2 3 6 0 2 2 2 3 7 6 5 7 9 10 10 10 7 7
12 9 5 1 3 1 2 1 3 2 2 4 0 3 2 5 2 3 1 1 2 3 1 3 1 3 4 2 2 4 2 3 5 3 2 2 1 5 2 1 4 3 1 3 3 4 4 2 2 2 2 3 3 5 3 3 3 4 2 3 3 3 1 2 2 1 2 3 1 3 1 3 5 1 3 1 4 5 5 6 8 9 11 11 12 12 11 9
13 9 5 6 3 0 2 2 2 1 3 2 4 4 2 2 2 1 1 3 1 2 3 3 1 2 3 1 3 6 3 3 3 4 2 2 1 1 2 3 1 2 1 2 2 3 4 3 0 4 2 3 3 5 2 1 1 3 3 3 3 1 1 1 2 2 4 4 2 3 0 2 8 4 3 3 2 3 2 4 6 8 10 11 12 13 10 8
14 8 5 6 3 2 5 1 1 2 2 3 4 2 2 2 1 1 1 2 0 1 1 1 3 4 1 3 5 4 2 5 5 2 1 1 0 3 1 1 1 2 5 1 2 3 5 2 1 2 1 1 2 5 3 3 4 5 5 3 4 4 1 2 1 1 3 3 2 1 1 4 2 3 2 3 3 4 5 5 5 7 9 10 10 9 9 8
13 1 4 4 5 4 4 3 2 6 4 4 2 3 5 2 1 1 2 2 1 2 1 3 3 2 5 3 3 4 2 1 5 4 3 1 3 2 2 2 2 3 1 2 3 1 3 4 1 1 1 2 3 5 2 1 5 4 3 6 5 5 4 2 4 4 4 2 2 1 2 1 3 3 3 3 4 5 4 4 5 6 6 6 6 6 9 9
8 3 3 2 2 4 7 4 4 2 2 2 6 4 2 3 2 2 1 2 2 3 1 2 1 3 3 3 3 1 2 1 2 2 5 3 2 1 3 4 5 3 2 2 1 1 3 5 3 1 1 1 1 1 2 6 4 1 1 3 3 4 4 7 1 3 2 2 1 3 2 0 1 3 3 2 2 4 5 5 6 5 5 5 5 10 10 10
1 1 2 1 2 2 2 1 3 3 3 3 4 2 2 2 1 2 1 1 2 1 4 2 5 3 2 1 1 2 3 2 5 2 3 3 1 3 1 2 3 1 0 1 2 3 1 3 2 4 2 1 1 2 1 2 5 4 3 5 1 3 5 5 2 3 1 1 3 2 2 3 2 2 1 2 2 3 4 4 5 6 6 7 9 9 10 10
4 3 2 4 3 6 3 2 2 3 6 4 4 1 2 1 4 4 2 2 2 2 2 1 2 2 1 1 1 5 4 2 2 3 1 0 1 4 3 1 0 1 1 2 2 2 2 3 2 0 4 2 2 1 3 4 1 7 4 4 5 1 3 2 3 1 0 4 2 1 3 3 4 2 5 3 2 0 2 4 4 5 7 9 8 9 10 10
4 3 1 2 3 5 1 1 1 5 4 2 1 2 2 2 1 2 1 1 1 1 2 2 1 1 2 1 0 1 4 2 3 2 1 1 2 1 0 2 2 2 5 2 1 1 2 4 2 1 2 3 3 2 3 4 3 3 2 3 3 2 4 1 2 1 2 2 2 2 1 2 6 4 7 9 6 4 1 2 2 6 7 7 7 8 9 10
2 2 1 1 2 4 2 1 4 3 2 2 0 0 3 2 1 1 1 1 1 2 0 2 1 1 3 2 2 1 1 1 0 0 0 0 2 2 3 0 1 1 3 2 1 2 1 2 3 1 1 4 3 1 3 3 4 4 3 4 2 2 2 3 2 1 2 2 1 1 3 4 7 3 10 11 8 5 2 1 3 4 4 4 5 6 8 9
4 1 1 1 6 5 2 1 3 4 3 1 3 2 0 2 1 3 1 2 1 2 1 2 1 2 1 1 2 0 1 1 3 2 0 0 2 2 2 2 2 6 2 1 2 1 0 1 2 1 2 2 3 2 2 0 2 3 3 1 2 2 2 2 2 2 3 2 2 1 2 4 1 2 6 10 7 5 3 0 2 3 3 4 4 5 6 8
1 1 1 3 8 5 2 6 3 2 3 1 1 0 1 1 2 2 2 2 1 1 2 3 4 2 3 2 2 2 2 1 1 2 3 2 0 1 1 2 1 4 2 1 4 2 1 1 2 3 4 3 2 2 2 2 1 1 2 3 3 4 5 4 4 3 1 3 3 3 5 1 1 1 2 4 4 3 2 2 1 3 4 4 4 6 6 6
2 2 1 4 9 2 3 1 2 1 2 3 2 2 0 2 2 3 3 3 2 2 2 4 1 2 2 2 0 3 3 2 1 1 1 2 1 1 1 2 3 2 1 1 1 1 0 1 0 3 6 5 2 1 3 3 2 2 2 2 1 0 0 4 5 3 0 1 2 1 1 1 3 2 1 2 1 3 1 2 2 2 2 3 4 5 5 6
4 3 5 6 7 1 3 4 1 1 1 1 3 2 2 0 1 1 1 4 2 1 1 2 1 2 1 1 2 2 3 2 3 1 1 2 2 0 3 6 3 2 1 2 0 1 2 0 1 3 3 3 1 1 1 1 3 2 2 2 2 4 2 4 3 1 2 4 2 1 2 1 2 1 1 2 2 2 0 2 5 4 3 3 4 5 5 6
2 2 4 4 7 1 3 3 1 0 2 3 3 2 1 0 1 3 3 3 2 3 1 0 1 2 2 1 2 2 1 2 0 2 2 1 3 1 2 6 2 2 1 0 0 1 2 1 1 1 2 4 4 3 2 2 2 1 1 2 1 1 3 2 3 2 2 5 3 4 9 2 4 1 1 1 2 4 4 4 3 6 4 3 4 4 4 5
2 1 2 7 9 6 3 1 2 2 2 2 2 5 5 2 1 2 1 2 3 1 1 1 1 2 2 1 3 2 4 1 1 1 2 1 1 1 2 5 5 3 1 1 3 0 1 1 2 3 4 5 3 3 5 2 1 2 1 2 1 1 4 2 4 3 5 2 3 3 1 0 2 1 2 1 1 4 3 3 2 1 3 3 3 3 3 4
4 1 4 5 7 6 5 1 3 2 2 2 2 1 1 3 1 3 1 2 1 2 2 1 0 1 3 1 3 1 2 3 1 1 2 2 1 1 1 4 4 3 3 7 4 1 1 1 2 4 7 8 8 6 2 1 1 4 2 1 2 3 3 2 2 1 5 2 4 2 1 1 5 8 5 4 4 6 6 5 5 5 3 2 2 2 3 3
1 4 2 4 5 7 3 3 4 3 1 0 1 2 2 3 4 3 2 2 4 1 2 4 2 1 1 2 1 2 0 0 2 2 1 2 2 2 2 1 2 6 8 2 5 3 2 1 2 2 6 7 2 4 1 1 6 5 6 6 3 2 2 4 4 5 4 2 8 4 5 6 7 8 7 5 5 5 4 5 5 4 3 3 2 1 2 4
3 1 1 1 1 2 3 3 7 3 3 1 1 0 2 3 4 1 4 3 2 4 1 0 5 4 1 1 4 2 1 2 2 1 0 2 1 2 1 3 2 6 6 2 3 1 1 1 1 2 4 3 4 5 2 3 5 6 6 5 7 6 5 7 4 4 7 6 9 7 9 6 4 7 9 8 10 10 10 8 5 2 1 2 3 3 3 3
3 0 1 2 0 0 0 5 3 1 5 4 1 3 2 3 3 1 1 5 4 3 4 0 2 4 3 1 1 1 1 2 0 1 2 0 1 2 0 1 1 3 3 3 3 1 1 2 4 3 5 3 5 6 4 5 3 4 7 8 9 7 9 9 9 6 11 11 7 5 7 10 7 6 6 5 7 8 5 1 1 3 4 5 3 3 3 2
4 4 3 4 3 2 3 2 1 2 3 5 1 4 1 2 3 5 1 3 2 2 3 3 1 3 3 3 2 2 3 3 2 0 2 1 1 1 1 2 0 1 3 1 0 1 2 1 4 2 2 6 4 5 4 7 6 11 10 7 4 5 8 9 7 3 1 8 3 4 6 10 3 2 4 3 1 2 1 5 5 3 3 4 4 3 2 1
1 1 0 2 2 4 3 3 3 3 2 4 3 3 1 3 2 2 2 3 3 2 4 1 3 1 2 4 6 4 1 2 5 5 2 5 1 1 2 0 2 3 3 1 1 1 1 1 1 2 5 5 5 10 12 8 8 10 10 6 8 8 6 4 5 6 6 6 6 6 6 6 8 7 1 1 3 6 9 6 4 3 3 3 4 3 2 2
1 1 1 1 0 3 3 1 1 0 2 1 2 3 2 4 3 1 2 1 3 5 1 3 2 1 2 4 5 5 8 6 7 7 5 3 1 1 1 1 3 2 1 0 1 2 2 1 1 0 4 5 5 5 5 6 8 12 7 9 16 12 8 3 5 3 11 10 8 7 10 5 2 2 6 8 8 7 5 3 3 2 3 4 4 2 2 1
Wind_Direction
335 335 333 332 329 334 326 325 323 319 317 313 314 318 322 326 328 324 319 320 315 320 323 317 321 321 322 326 330 330 353 329 319 347 294 244 179 174 174 66 165 177 102 61 84 144 52 31 104 354 125 203 6 199 7 176 42 201 128 116 198 137 210 200 213 196 46 300 315 316 5 305 292 95 93 119 96 111 118 100 61 60 57 116 120 145 143 141
336 336 335 337 335 328 327 324 320 317 314 312 313 315 314 316 317 313 313 320 319 315 320 325 322 320 325 325 326 352 350 312 293 281 237 220 170 176 154 106 136 152 148 106 108 98 120 85 49 97 153 150 319 40 283 113 276 137 112 209 239 178 247 180 194 232 287 303 308 300 311 285 256 165 151 163 141 141 133 104 101 84 99 110 134 144 145 147
336 338 333 334 333 328 325 323 322 320 318 316 311 311 312 309 311 312 315 320 318 317 318 322 324 325 321 325 326 9 339 303 253 273 313 225 218 177 149 128 132 151 169 145 194 129 116 165 178 137 34 115 5 111 0 81 226 96 213 202 241 205 262 224 203 257 226 287 292 310 328 277 240 225 136 170 154 167 163 149 141 138 142 145 144 147 148 153
335 335 333 329 332 334 330 328 322 325 319 313 314 313 316 314 312 311 315 317 314 313 318 323 324 324 325 322 331 346 289 281 75 329 262 256 194 172 160 136 135 124 103 66 136 101 110 102 85 107 101 73 58 284 196 131 231 130 209 231 262 173 266 254 191 239 259 229 268 299 298 247 194 246 176 144 144 214 215 208 165 166 157 152 154 150 155 152
336 334 331 329 327 328 327 323 321 318 315 307 305 306 306 306 304 304 306 308 312 316 321 326 325 324 323 323 344 291 276 242 59 250 267 348 153 151 158 143 126 112 101 136 107 64 75 78 100 50 81 144 26 118 351 74 353 142 237 250 225 140 262 265 259 236 239 184 245 266 324 341 356 211 165 165 183 188 196 201 336 159 152 154 158 158 159 157
330 331 326 324 324 326 324 324 322 319 316 312 308 305 304 305 306 305 306 309 314 318 322 322 323 323 324 335 288 176 243 64 256 279 4 59 129 140 145 137 124 112 122 91 93 78 122 48 101 76 75 136 140 191 103 223 158 240 210 248 234 232 263 303 257 224 181 265 274 301 333 288 225 222 179 187 211 21 330 301 129 151 164 158 154 155 162 164
329 326 326 324 323 323 322 320 321 318 313 312 308 305 304 305 310 306 305 308 307 314 319 320 322 325 332 2 139 281 45 290 298 292 51 114 131 132 134 132 131 115 100 99 63 86 52 105 95 126 109 101 106 242 51 216 202 234 257 26 279 179 228 245 259 232 238 283 271 124 8 295 277 226 168 190 177 319 325 172 130 144 156 159 160 165 162 162
325 325 327 324 320 316 317 318 316 315 315 314 317 312 308 304 303 304 301 301 307 312 316 321 325 326 338 331 229 326 46 324 295 28 105 131 128 123 111 97 123 116 113 133 134 121 132 120 129 172 55 82 122 206 89 218 157 209 267 227 266 194 237 254 259 274 272 258 265 276 278 273 216 239 147 202 196 24 112 132 128 138 151 159 159 159 160 156
324 325 324 318 315 315 313 314 313 315 313 315 318 319 313 306 300 296 297 305 313 309 314 321 326 337 334 269 104 61 70 243 347 26 117 126 125 126 140 113 186 122 113 110 98 145 181 218 115 226 42 207 153 272 166 218 216 194 238 181 255 262 265 276 290 279 262 267 236 270 234 45 141 66 199 43 88 126 126 127 134 139 150 156 162 156 159 161
322 319 317 313 312 314 315 309 310 310 311 313 318 323 317 312 304 300 300 302 299 306 314 325 330 359 26 189 215 67 218 84 61 104 121 132 127 121 36 127 132 118 133 147 102 122 193 175 92 170 120 96 169 249 64 192 12 172 234 234 265 277 318 331 277 319 4 258 241 219 49 77 51 294 154 42 88 131 126 130 142 146 155 160 159 159 168 166
319 316 314 313 312 312 307 305 304 307 311 313 314 318 324 317 311 302 299 296 296 301 315 321 338 6 39 307 43 107 150 95 106 131 134 151 141 143 147 153 149 141 126 101 159 194 202 168 164 128 206 74 183 285 196 222 115 203 251 279 256 281 254 266 262 275 228 315 205 239 77 85 11 230 14 351 162 158 133 143 151 149 157 163 163 165 171 173
319 317 313 310 308 304 302 303 304 307 309 309 311 316 319 318 307 307 294 296 304 312 316 315 354 348 346 37 198 160 350 303 132 138 140 154 113 200 146 163 165 145 143 148 211 201 198 157 170 14 349 164 290 5 214 190 247 293 305 288 305 343 147 4 351 38 280 51 233 216 113 30 290 197 352 272 164 162 137 148 157 158 151 162 170 169 168 174
319 312 312 309 304 300 302 302 302 302 307 307 309 310 310 312 308 294 294 286 309 326 341 324 342 336 276 325 220 221 265 149 127 128 128 57 109 68 136 170 128 142 142 131 192 210 203 154 98 97 156 196 283 313 98 101 259 251 95 338 292 349 72 18 307 345 152 36 212 219 211 201 227 261 329 171 158 141 130 147 160 158 157 158 163 168 172 173
317 313 309 306 303 301 300 300 303 306 306 307 306 305 304 305 302 289 277 268 292 294 307 32 10 320 217 238 272 212 192 132 122 134 163 228 121 55 78 68 79 74 28 62 31 113 178 353 124 77 97 214 256 300 275 320 7 276 351 67 18 297 44 6 26 306 113 335 161 171 275 4 209 20 26 333 181 156 151 156 165 165 164 166 172 176 184 188
318 314 309 307 302 298 299 303 305 307 309 307 306 304 297 291 287 280 266 270 233 237 244 205 114 283 46 279 271 277 134 127 155 208 176 152 145 109 164 49 133 101 71 78 35 53 120 127 123 174 253 311 256 304 268 341 26 9 218 53 60 335 67 329 38 23 51 100 331 209 283 281 343 348 13 55 216 179 153 164 172 173 174 175 181 187 192 192
318 315 310 303 300 301 301 301 307 311 311 310 309 304 294 273 254 229 213 206 175 222 83 284 232 307 148 28 114 122 130 240 55 235 203 167 161 131 118 133 119 112 161 50 35 111 41 104 49 32 276 162 146 101 17 163 72 21 355 126 335 329 9 287 61 66 74 268 61 352 298 316 113 22 66 72 196 197 168 174 176 181 180 182 187 191 192 188
320 313 309 303 301 299 300 303 305 305 313 320 325 311 287 242 157 169 167 158 176 80 3 116 251 230 54 148 155 185 321 282 156 94 114 297 143 134 120 103 89 98 88 83 73 111 24 176 356 170 43 64 1 213 237 50 149 72 338 85 325 15 349 100 321 70 358 19 6 37 236 256 69 338 9 113 200 188 189 183 184 182 186 193 193 194 199 204
320 315 307 305 299 300 302 300 300 304 318 337 335 348 93 118 126 111 94 102 106 194 341 228 235 295 275 314 240 342 243 284 329 111 84 191 123 112 90 98 237 101 112 104 72 173 344 216 332 132 320 6 9 67 77 179 104 148 130 122 128 209 276 321 305 9 352 53 355 348 250 277 345 280 184 172 163 205 206 194 188 189 189 194 201 205 209 210
322 314 308 303 301 299 301 301 298 303 320 17 32 93 94 93 104 234 118 174 192 346 347 101 148 349 147 154 310 282 227 211 109 172 139 133 143 94 79 92 59 271 78 84 53 173 22 150 90 84 253 348 51 76 163 64 173 306 173 107 142 159 140 290 245 24 4 336 348 118 323 319 301 291 215 168 148 193 199 205 203 199 198 203 208 215 216 218
323 315 309 303 302 300 297 296 296 295 305 133 122 99 164 341 341 52 105 27 210 235 263 249 114 287 301 268 283 294 234 55 149 15 97 187 131 134 44 27 12 55 85 173 351 71 309 135 224 223 255 234 202 209 157 145 144 89 96 147 146 216 245 260 266 1 359 248 178 67 284 252 285 265 263 92 102 163 183 194 194 198 201 203 210 215 221 225
324 320 309 306 300 304 291 288 294 303 219 152 155 179 47 168 34 332 323 264 211 230 233 233 200 232 264 353 287 340 15 327 53 56 171 139 106 160 14 8 26 140 52 319 172 8 237 54 244 226 231 217 189 144 116 100 77 152 145 185 174 219 212 82 36 13 24 305 48 68 299 276 275 287 266 287 179 203 188 191 198 201 206 209 211 216 218 218
330 320 318 309 309 300 300 264 203 162 70 145 213 105 155 190 273 253 98 316 305 229 235 269 8 274 297 252 234 137 115 14 151 35 355 190 56 194 312 91 139 184 42 197 209 90 55 215 253 229 143 95 87 128 151 146 138 110 208 185 234 228 279 302 256 315 354 230 313 120 302 293 284 286 282 228 206 222 195 194 199 194 198 207 214 222 223 207
330 327 319 319 310 303 283 295 198 165 155 175 107 103 141 303 210 274 109 165 270 218 174 101 213 248 286 264 266 168 124 198 187 211 188 143 101 241 142 137 117 76 165 121 223 152 268 303 202 93 143 113 75 112 130 100 93 153 163 193 234 63 299 192 161 327 15 11 341 2 304 285 297 248 272 277 255 300 17 234 246 211 200 202 207 207 206 213
335 331 330 325 316 314 224 114 99 133 205 235 205 139 124 210 85 138 152 275 318 312 210 213 199 197 232 291 184 145 164 220 140 235 25 161 134 146 126 139 98 183 203 181 169 195 240 107 87 121 147 177 139 154 151 167 185 327 208 237 230 194 216 244 337 323 247 123 3 262 249 264 59 168 133 18 329 295 314 308 194 213 243 252 294 257 215 209
336 338 336 331 325 251 155 137 146 238 153 148 249 251 255 244 207 188 121 323 164 272 262 39 200 244 201 96 69 222 202 75 242 356 198 140 127 132 56 146 190 223 97 103 91 155 276 329 161 115 131 135 145 154 204 163 191 184 221 208 209 177 186 235 306 294 325 232 52 356 295 225 327 294 209 10 325 235 277 319 267 261 209 218 225 227 227 238
338 337 341 335 331 312 147 159 240 140 184 229 116 130 243 252 204 188 100 76 60 291 338 187 175 115 151 126 120 192 68 275 60 253 163 237 134 136 130 104 18 294 157 171 226 270 12 88 208 181 149 139 187 218 218 202 169 167 241 189 184 168 127 148 144 349 297 307 55 337 284 279 342 35 96 347 307 271 191 222 91 5 213 211 232 233 226 225
338 338 336 343 347 135 155 90 219 158 32 283 280 292 271 260 185 153 252 4 72 300 22 298 213 123 181 177 150 134 175 96 323 83 94 248 222 3 181 169 94 61 133 168 38 170 141 86 78 57 105 134 178 294 196 176 154 201 83 146 139 140 171 167 137 192 328 322 270 34 353 273 284 267 98 312 309 316 334 355 68 45 285 257 231 226 226 227
337 334 335 323 357 205 298 350 193 234 210 277 312 315 312 336 140 51 79 68 282 283 28 273 268 199 292 354 92 187 324 275 48 116 250 308 147 26 1 194 191 165 150 159 289 94 174 130 178 155 120 174 285 232 152 199 169 354 128 164 134 144 129 135 136 104 12 296 266 171 116 262 236 275 137 313 277 10 4 5 340 333 282 248 259 266 258 243
334 331 323 329 345 197 206 234 188 224 243 280 313 314 36 89 107 116 135 103 244 342 212 100 49 122 343 127 51 2 322 354 28 327 313 89 35 209 203 202 148 125 21 234 255 209 245 217 223 202 203 265 210 248 172 173 190 79 131 96 91 89 69 54 119 123 119 253 262 246 66 267 281 252 283 63 108 2 335 330 319 326 323 310 288 257 253 267
329 326 320 295 132 185 253 193 223 245 301 308 319 288 75 54 14 84 20 212 18 109 254 269 302 278 37 137 335 15 199 348 33 329 37 143 3 48 41 117 134 125 164 24 272 260 319 294 152 203 223 265 117 47 120 111 33 124 183 101 74 54 61 62 54 101 137 233 251 14 340 261 285 334 344 23 33 308 314 309 315 326 332 330 325 313 299 274
324 318 313 199 204 211 141 340 253 252 276 307 266 76 79 41 143 87 143 242 325 296 309 18 341 15 39 75 79 343 81 351 6 4 149 340 75 44 81 168 74 71 50 350 263 342 312 86 184 223 42 116 123 91 48 43 122 166 165 134 118 89 49 93 50 55 223 250 217 6 267 198 243 174 128 103 296 258 259 286 310 324 327 326 320 319 320 308
326 308 267 195 242 158 186 317 233 174 295 289 55 63 97 241 33 163 201 358 124 329 59 305 17 72 34 351 86 4 4 359 12 30 28 12 117 230 71 222 105 285 238 32 322 350 288 203 1 314 228 178 147 110 100 107 200 191 127 128 250 228 41 216 187 217 207 256 62 2 10 205 226 267 341 351 317 309 285 280 305 315 314 318 321 325 322 318
325 310 228 206 221 247 244 313 5 348 356 39 68 40 61 93 229 261 276 344 215 269 53 138 304 6 315 61 15 344 266 48 328 99 277 45 123 42 254 348 246 212 276 67 305 356 284 238 314 271 133 88 195 220 133 195 180 187 199 156 207 239 186 260 203 357 300 250 29 255 14 266 357 282 54 326 323 331 319 312 314 313 308 311 321 330 337 328
333 285 142 198 210 250 298 298 336 340 24 40 97 54 56 71 235 172 320 248 20 15 38 19 351 63 36 78 17 333 86 3 356 348 13 58 50 24 58 75 34 25 76 122 276 105 305 332 117 183 157 33 243 262 226 323 166 200 17 190 215 196 200 230 222 240 264 322 49 54 212 229 220 98 345 353 328 330 352 346 344 328 324 317 320 354 7 353
341 64 142 126 216 249 251 256 249 151 91 67 56 86 127 232 241 205 238 314 284 278 115 329 97 62 38 30 328 0 10 160 53 312 28 26 37 67 8 12 4 98 86 207 167 43 270 257 269 286 352 102 226 98 122 113 92 76 210 48 155 221 133 251 40 277 243 163 182 176 250 16 256 1 308 311 357 42 11 1 341 354 347 325 14 27 18 11
312 317 174 21 350 312 294 240 135 105 93 57 78 58 163 197 25 189 93 204 295 303 317 37 59 78 340 339 309 69 5 19 6 60 37 45 80 37 316 258 5 309 249 241 137 196 88 245 326 325 155 341 84 210 219 223 242 150 165 207 205 39 126 90 112 56 48 15 240 87 270 211 258 215 120 46 46 57 17 14 9 2 357 6 31 21 25 25
17 324 57 339 359 345 338 109 122 82 64 94 98 221 206 245 216 179 249 258 308 119 47 169 354 73 354 323 292 341 344 1 32 8 38 330 118 8 332 310 234 234 213 253 234 227 259 284 311 34 266 78 286 106 74 30 93 112 221 174 108 124 52 159 229 59 132 239 244 123 215 185 177 209 162 168 162 64 16 16 6 19 14 34 23 20 19 25
348 21 94 26 328 325 344 173 64 55 75 82 148 224 243 112 194 234 337 44 157 37 104 88 41 8 216 194 246 229 342 36 339 44 28 335 92 327 325 317 303 14 336 198 243 31 206 270 287 19 261 299 11 233 80 79 344 283 332 119 215 192 201 66 112 201 187 212 249 186 291 264 223 202 154 183 181 180 121 353 24 43 30 27 24 22 23 24
48 74 103 333 318 328 295 90 70 68 67 60 270 55 217 262 228 186 238 184 75 126 142 250 140 9 124 169 186 307 284 15 224 352 257 111 176 34 35 234 248 57 2 171 207 114 329 266 284 145 193 352 326 43 234 128 62 62 139 129 30 274 263 179 198 356 229 255 119 212 168 232 193 202 176 169 183 168 151 216 71 54 32 17 22 25 29 28
23 27 328 233 343 355 295 82 55 52 78 182 189 226 243 203 285 247 269 215 295 130 252 154 227 129 233 246 165 161 172 201 168 164 253 1 147 20 6 325 302 319 49 334 119 290 129 7 264 41 283 289 216 343 261 199 168 140 183 143 148 42 347 356 74 221 240 193 203 200 223 223 161 186 170 169 171 163 211 157 47 33 27 20 24 28 36 44
213 100 268 307 350 329 59 51 49 56 113 348 193 261 301 32 323 299 336 5 113 340 147 186 161 190 188 137 235 200 150 125 165 162 196 91 282 211 73 313 335 301 345 152 71 25 95 156 250 336 319 271 317 32 339 211 348 278 241 224 192 156 185 204 222 100 235 205 201 173 232 145 75 141 210 127 140 158 202 278 344 22 21 11 17 28 26 44
52 17 279 332 352 22 99 81 42 247 93 161 127 182 100 23 117 332 328 357 65 93 16 103 18 118 135 159 178 158 155 182 168 219 235 192 69 23 128 104 260 251 314 88 3 353 324 125 80 257 269 295 358 59 294 284 263 281 272 251 154 46 184 230 246 178 69 107 57 21 345 218 67 159 238 251 211 208 194 195 152 118 58 32 26 29 34 40
50 232 279 317 355 90 71 64 326 67 108 263 304 246 268 335 148 242 29 355 359 18 12 48 151 182 255 268 179 157 191 158 171 265 65 92 113 245 312 319 275 163 229 70 218 186 166 282 245 272 305 273 329 310 113 135 168 170 96 70 205 224 230 254 268 112 195 120 189 140 226 178 133 73 177 248 264 289 197 199 148 135 128 86 55 36 28 37
230 285 323 297 1 106 89 226 194 153 314 321 41 305 288 233 33 13 27 341 56 349 57 346 78 60 78 34 109 162 192 198 293 114 121 183 130 200 344 334 312 79 16 13 305 130 278 154 244 309 327 303 277 201 171 147 134 44 295 54 333 87 81 87 99 95 245 192 216 190 246 161 166 44 82 168 146 154 150 151 167 141 133 101 77 54 38 33
254 253 242 301 349 37 120 152 140 141 40 33 345 36 349 33 3 26 281 22 355 106 141 67 349 269 77 44 92 108 37 16 112 13 85 83 114 3 322 1 339 79 352 314 246 61 237 199 166 254 255 249 239 242 266 275 256 326 231 255 112 279 132 176 232 167 239 82 181 216 257 153 93 202 78 39 172 159 141 141 152 110 116 108 91 71 56 54
28 8 318 339 13 29 80 19 65 109 92 37 50 6 102 344 93 355 73 65 338 75 31 251 256 86 70 122 93 37 91 26 328 143 159 134 286 299 97 332 34 8 336 59 37 164 137 72 238 234 247 257 257 262 39 17 285 255 237 240 212 63 22 55 71 165 237 146 211 183 310 157 193 180 190 166 203 184 160 162 159 152 132 110 83 65 58 53
136 63 354 343 331 43 77 29 24 6 71 293 110 339 21 327 300 330 45 141 25 25 58 36 357 256 235 97 132 120 5 166 39 118 58 150 251 289 328 341 290 4 351 12 10 100 79 261 196 226 245 264 324 282 139 235 274 280 277 255 201 195 174 197 191 235 110 139 252 144 229 224 204 197 185 198 205 211 196 177 173 177 164 153 127 97 74 79
60 240 96 150 1 346 5 10 25 2 19 270 90 58 44 339 11 52 340 61 324 9 159 185 50 45 60 193 139 149 72 59 16 149 223 213 297 318 119 41 66 335 342 43 344 62 90 254 199 170 251 226 204 247 211 248 238 261 253 261 256 216 181 206 224 190 170 216 264 157 191 205 203 209 208 196 194 196 198 189 179 157 158 168 161 138 107 86
94 62 124 307 309 280 208 299 326 99 43 32 97 36 53 48 38 350 320 326 18 16 10 146 352 22 25 354 81 120 133 176 283 344 217 141 31 343 29 27 186 345 33 36 33 37 179 252 206 192 255 244 243 244 222 217 248 237 236 236 239 240 232 233 238 205 204 230 242 213 198 220 207 222 219 211 202 196 179 132 189 206 191 169 165 164 134 116
25 0 345 358 68 97 338 9 39 32 75 347 68 20 73 22 15 359 50 16 358 359 346 89 345 32 40 50 50 72 6 348 340 99 202 131 150 197 263 236 47 94 19 58 236 62 215 283 105 179 261 254 281 263 186 229 237 258 251 245 243 240 248 241 255 242 13 280 280 222 227 241 231 270 266 46 95 106 157 213 216 208 175 180 181 165 152 127
324 347 326 329 30 339 337 18 24 21 67 6 46 10 59 18 37 339 44 0 36 345 357 24 316 135 57 61 58 90 81 332 283 310 223 174 324 220 221 255 163 306 19 22 127 65 173 269 53 264 274 261 214 255 265 261 252 257 256 254 243 223 236 204 220 202 205 235 222 212 240 249 245 224 36 4 176 193 203 205 205 221 204 190 197 178 150 98
291 204 329 262 75 7 5 345 33 247 65 38 354 343 38 33 330 277 122 48 83 53 339 282 297 40 47 60 51 345 319 280 266 261 278 281 23 214 224 332 186 283 301 141 42 243 204 188 217 170 256 264 238 248 281 305 306 270 225 212 232 240 234 229 240 195 214 215 231 221 238 253 289 170 216 212 199 202 205 191 196 236 232 214 216 198 147 110